SCP
0 0 0 0 0 0 0 0 0 0 0 0 0 0 0 0 0 0 0 0 0 0 0 0 0 0 0 0 0 0 0 0 0 0 0 0 0 0 0 0 0 0 0
0 0 0 0 0 0 0 0 0 0 0 0 0 0 0 0 0 0 0 0 0 0 0 0 0 0 0 0 0 0 0 0 0 0 0 0 0 0 0 0 0 0 0
0 0 0 0 0 0 0 0 0 0 0 0 0 0 0 0 0 0 0 0 0 0 0 0 0 0 0 0 0 0 0 0 0 0 0 0 0 0 0 0 0 0 0
0 0 0 0 0 0 0 0 0 0 0 0 0 0 0 0 0 0 0 0 0 0 0 0 0 0 0 0 0 0 0 0 0 0 0 0 0 0 0 0 0 0 0
0 0 0 0 0 0 0 0 0 0 0 0 0 0 0 0 0 0 0 0 0 0 0 0 0 0 0 0 0 0 0 0 0 0 0 0 0 0 0 0 0 0 0
0 0 0 0 0 0 0 0 0 0 0 0 0 0 0 0 0 0 0 0 0 0 0 0 -0 0 0 0 0 0 0 0 0 0 0 0 0 0 0 0 0 0 0
0 0 0 0 0 0 0 0 0 0 0 0 0 0 0 0 0 0 0 0 0 0 0 -0 -0 -0 0 0 0 0 0 0 0 0 0 0 0 0 0 0 0 0 0
0 0 0 0 0 0 0 0 0 0 0 0 0 0 0 0 -0 0 0 0 0 0 0 -0 -0 -0 0 0 0 0 0 0 0 0 0 0 0 0 0 0 0 0 0
0 0 0 0 0 0 0 0 0 0 0 0 0 0 0 0 0 0 0 0 0 0 0 0 -0 -0 0 0 0 0 0 0 0 0 0 0 0 0 0 0 0 0 0
0 0 0 0 0 0 0 0 0 0 0 0 0 0 0 0 0 0 0 0 0 0 0 0 0 0 0 0 0 0 0 0 0 0 0 0 0 0 0 0 0 0 0
0 0 0 0 0 0 0 0 0 0 0 0 0 0 0 0 0 0 0 0 0 0 0 0 0 0 0 0 0 0 0 0 0 0 0 0 0 0 -0 -0 -0 -0 -0
0 0 0 0 0 0 0 0 0 0 0 0 0 0 0 0 0 0 0 0 0 0 0 0 0 0 0 0 0 0 0 0 0 0 0 0 -0 -0 -0 -0 -0 -0 -0
0 0 0 0 0 0 0 0 0 0 0 0 0 0 0 0 0 0 0 0 0 0 0 0 0 0 0 0 0 0 0 0 0 0 0 -0 -0 -0 -0 -0 -0 -0 -0
0 0 0 0 0 0 0 0 0 0 0 0 0 0 0 0 0 0 0 0 0 0 0 0 0 0 0 0 0 0 0 0 0 0 0 -0 -0 -0 -0 -0 -0 -0 -0
0 0 0 0 0 0 0 0 0 0 0 0 0 0 0 0 0 0 0 0 0 0 0 0 0 0 0 0 0 0 0 0 0 0 0 0 -0 -0 -0 -0 -0 -0 -0
0 0 0 0 0 0 0 0 0 0 0 0 0 0 0 0 0 0 0 0 0 0 0 0 0 0 0 0 0 0 0 0 0 0 0 0 -0 -0 -0 -0 -0 -0 -0
0 0 0 0 0 0 0 0 0 0 0 0 0 0 0 0 0 0 0 0 0 0 0 0 0 0 0 0 0 0 0 0 0 0 0 0 0 -0 -0 -0 -0 -0 -0
0 0 0 0 0 0 0 0 0 0 0 0 0 0 0 0 0 0 0 0 0 0 0 0 0 0 0 0 0 0 0 0 0 0 0 0 0 0 -0 -0 -0 -0 -0
0 0 0 0 0 0 0 0 0 0 0 0 0 0 0 0 0 0 0 0 0 0 0 0 0 0 0 0 0 0 0 0 0 0 0 0 0 0 0 -0 -0 -0 -0
0 0 0 0 0 0 0 0 0 0 0 0 0 0 0 0 0 0 0 0 0 0 0 0 0 0 0 0 0 0 0 0 0 0 0 0 0 0 0 0 -0 -0 -0
0 0 0 0 0 0 0 0 0 0 0 0 0 0 0 0 0 0 0 0 0 0 0 0 0 0 0 0 0 0 0 0 0 0 0 0 0 0 0 0 0 0 0
0 0 0 0 0 0 0 0 0 0 0 0 0 0 0 0 0 0 0 0 0 0 0 0 0 0 0 0 0 0 0 0 0 0 0 0 0 0 0 0 0 0 0
0 0 0 0 0 0 0 0 0 0 0 0 0 0 0 0 0 0 0 0 0 0 0 0 0 0 0 0 0 0 0 0 0 0 0 0 0 0 0 0 0 0 0
0 0 0 0 0 0 0 0 0 0 0 0 0 0 0 0 0 0 0 0 0 0 0 0 0 0 0 0 0 0 0 0 0 0 0 0 0 0 0 0 0 0 0
0 0 0 0 0 0 0 0 0 0 0 0 0 0 0 0 0 0 0 0 0 0 0 0 0 0 0 0 0 0 0 0 0 0 0 0 0 0 0 0 0 0 0
0 0 0 0 0 0 0 0 0 0 0 0 0 0 0 0 0 0 0 0 0 0 0 0 0 0 0 0 0 0 0 0 0 0 0 0 0 0 0 0 0 0 0
Wind_Speed
12 13 13 12 11 10 9 8 9 9 10 11 12 13 13 14 15 16 16 17 18 18 19 20 20 21 21 22 22 23 23 23 23 23 22 22 23 24 25 25 23 17 25
15 14 15 14 12 11 9 9 9 9 9 10 11 12 13 13 14 15 15 16 17 18 18 19 19 20 20 21 21 21 22 22 21 21 20 18 21 24 24 24 24 18 25
15 14 15 14 13 11 10 9 9 9 9 10 10 11 12 12 13 13 14 15 16 16 17 18 18 19 19 19 20 20 20 20 19 18 17 14 15 22 23 23 23 23 24
15 13 14 15 13 12 11 10 9 9 9 9 9 10 11 11 12 12 13 14 14 15 16 16 17 17 18 18 19 19 19 19 18 16 12 12 13 20 22 22 23 23 23
14 13 14 16 14 13 11 10 9 9 9 9 9 9 10 10 11 11 12 12 13 13 14 15 15 16 17 17 18 18 18 17 15 14 12 12 12 20 22 22 22 22 23
15 14 14 16 15 13 12 11 10 9 9 9 8 8 9 9 9 10 10 11 11 12 13 13 14 15 16 16 17 18 18 17 13 11 11 12 12 20 22 22 22 22 23
15 14 14 16 15 14 13 11 10 10 9 9 8 8 8 8 8 8 9 9 10 10 11 12 13 14 14 15 16 17 17 16 11 11 11 11 15 22 22 22 23 23 23
14 13 12 17 16 15 13 12 11 10 10 9 8 7 7 7 7 7 8 8 8 9 10 11 11 12 13 14 15 16 16 16 10 11 11 11 19 22 23 23 22 23 23
14 13 12 14 15 15 14 13 12 11 10 10 9 8 7 6 6 6 6 6 7 7 8 9 10 11 12 13 14 15 15 14 11 9 10 10 20 22 22 22 22 22 22
14 14 13 12 13 13 13 14 13 12 11 11 10 9 8 6 6 5 4 5 5 6 7 8 9 9 10 11 13 13 12 10 10 9 7 11 20 21 22 22 22 22 23
15 15 14 14 13 12 11 13 14 13 12 12 10 10 8 5 5 4 4 4 4 4 5 6 7 7 6 7 10 11 8 6 9 7 7 14 19 20 21 21 22 22 22
21 19 16 15 14 13 10 10 9 9 10 10 8 9 6 5 4 4 5 3 3 3 3 5 5 4 4 4 6 7 5 8 6 6 6 15 18 19 20 20 21 21 22
20 19 18 17 15 14 10 9 7 6 7 9 10 9 7 6 5 5 4 5 4 3 2 1 1 2 4 4 4 5 6 6 5 5 7 13 16 18 19 20 20 21 21
20 21 20 18 16 15 12 10 9 8 7 7 9 11 8 5 6 5 4 4 4 3 2 2 1 2 3 4 5 5 6 5 5 5 6 12 15 17 19 19 20 20 21
21 21 21 20 18 16 13 10 10 10 9 10 9 10 10 7 7 7 5 5 5 4 4 3 2 2 3 4 4 6 6 7 7 7 6 11 14 16 18 18 19 20 21
22 22 21 21 20 18 14 12 11 10 10 10 10 12 12 9 8 7 7 6 6 5 4 3 3 3 4 4 6 7 7 8 8 9 8 9 13 15 16 17 18 20 21
22 21 22 21 21 20 18 16 11 10 11 10 10 12 13 11 10 8 7 7 6 6 6 5 5 4 4 5 7 8 7 8 9 10 10 8 8 11 14 16 18 19 20
20 21 22 18 21 21 18 16 12 11 12 11 10 11 14 14 12 10 8 8 7 6 6 5 5 5 5 6 6 6 7 8 10 11 10 9 8 8 10 14 17 19 20
20 21 21 21 22 21 19 15 14 12 12 11 11 11 13 15 14 11 9 8 9 7 7 6 6 6 6 6 7 7 8 9 9 10 11 11 10 10 9 12 16 18 19
19 19 20 21 21 20 16 14 12 13 12 12 12 13 15 14 16 13 10 11 10 8 8 8 8 7 6 6 7 8 9 10 9 9 10 9 9 11 11 11 11 12 17
19 20 21 21 21 18 15 15 15 14 13 12 13 15 17 16 16 15 11 12 11 10 10 10 9 9 8 6 7 8 9 11 10 8 8 9 10 11 11 12 10 10 9
20 21 21 22 22 21 16 15 12 13 12 13 12 15 18 18 17 15 16 12 13 11 12 12 11 8 7 7 6 6 6 6 8 8 8 9 10 9 11 12 12 12 12
19 21 19 21 21 22 20 13 11 11 10 12 15 15 18 19 19 18 18 15 14 13 12 13 13 13 9 8 8 6 6 5 4 6 10 9 10 10 10 11 13 14 14
17 16 18 19 20 20 20 18 19 16 17 17 14 13 16 19 20 20 19 18 16 14 14 13 13 11 11 9 8 9 9 7 6 6 6 8 10 12 12 11 12 14 15
14 14 15 17 19 19 21 21 21 20 17 13 14 16 17 18 20 21 20 18 17 15 16 15 14 14 11 11 9 8 9 9 11 9 10 9 9 10 11 12 12 12 14
11 13 14 17 18 19 21 22 23 24 21 18 18 16 15 13 15 21 20 19 18 16 16 16 15 16 13 13 11 9 9 8 8 10 11 12 12 11 12 12 12 13 13
Wind_Direction
161 158 158 150 143 134 123 110 98 88 81 77 74 70 67 63 60 57 55 53 52 50 50 48 47 47 46 47 48 46 41 38 34 32 30 27 23 27 28 25 21 20 19
153 157 158 153 147 139 130 118 107 97 89 82 77 74 70 65 62 59 56 54 52 50 49 48 47 46 46 45 47 46 42 38 35 32 29 26 21 23 26 24 22 18 17
153 156 157 155 150 144 136 127 117 105 95 88 82 78 74 69 65 61 58 55 53 52 50 48 47 45 44 43 44 45 42 37 35 32 30 23 16 19 23 22 19 17 15
155 159 157 155 154 149 144 136 125 114 104 95 88 83 78 71 67 64 60 57 54 52 51 48 46 44 42 41 41 42 41 36 33 31 29 21 12 13 19 19 16 14 12
160 160 154 158 158 155 150 144 135 124 114 103 95 89 83 75 70 66 62 58 55 53 51 48 45 42 40 39 38 38 38 33 28 29 26 19 9 8 14 15 13 11 9
164 163 160 163 162 160 157 152 144 135 124 114 105 96 90 82 74 69 64 60 56 53 51 48 44 41 38 36 35 35 33 28 23 26 21 16 6 4 9 10 8 7 5
167 168 167 168 168 166 164 160 153 144 136 126 116 107 97 90 81 75 70 62 57 53 50 47 44 41 37 34 33 32 29 23 21 22 16 11 3 1 4 5 4 2 0
171 172 172 173 174 173 171 167 162 155 147 138 128 118 107 98 90 79 74 67 59 54 50 47 44 40 35 32 31 29 26 20 15 16 12 6 0 357 358 359 358 356 355
177 179 179 180 179 180 178 175 170 165 158 149 140 129 117 106 98 85 78 74 64 56 51 48 45 40 33 30 28 26 21 16 13 12 6 1 354 352 352 352 351 350 349
186 188 186 187 183 182 182 181 178 173 167 160 149 140 129 118 110 98 97 81 70 58 52 49 45 40 32 27 25 23 15 7 10 5 2 354 349 346 346 345 345 344 343
195 195 193 190 186 185 184 180 182 180 175 168 160 153 152 158 150 148 106 93 80 61 51 48 43 35 28 28 24 17 9 4 357 355 352 347 342 340 339 338 338 337 336
197 196 195 195 190 188 185 186 187 183 178 182 174 168 176 176 169 159 127 115 95 74 59 45 36 21 3 10 18 7 2 353 350 344 342 339 334 332 331 330 329 329 328
197 195 197 197 194 192 189 189 186 184 181 187 187 182 183 181 174 187 181 170 172 183 188 154 264 7 5 8 352 353 349 342 333 329 327 329 325 323 322 321 321 321 320
199 199 198 198 198 198 196 194 194 190 189 190 192 192 188 188 194 193 201 195 198 201 211 239 297 339 339 340 336 332 327 320 315 313 310 313 313 312 312 312 313 313 314
203 201 200 199 199 199 201 200 200 200 197 195 192 195 196 195 197 195 200 200 206 207 214 229 253 287 300 309 307 306 304 303 299 295 293 294 298 301 303 305 307 308 309
205 203 200 200 201 200 201 203 203 203 200 200 197 198 200 203 201 198 202 204 208 210 217 231 250 271 281 286 288 289 289 290 284 283 281 284 283 288 293 297 301 304 305
206 204 201 200 201 202 205 206 206 203 201 202 201 201 201 205 204 201 206 206 207 206 212 223 232 251 264 271 273 278 280 279 277 276 276 275 277 277 280 287 294 299 301
206 204 202 199 202 204 205 206 207 206 204 205 203 202 203 206 206 205 208 210 204 204 212 220 229 241 247 259 269 273 273 271 272 272 270 265 266 271 275 279 287 293 297
206 203 202 200 203 204 205 207 210 209 209 208 205 204 204 205 206 207 211 210 203 206 211 216 224 234 246 254 264 271 270 267 269 266 263 260 259 264 270 276 280 285 289
206 204 203 201 204 203 204 208 211 215 214 212 210 208 205 204 205 208 211 210 205 208 211 212 221 223 240 254 266 269 268 267 265 261 260 257 256 260 264 272 277 279 281
205 204 203 202 203 200 200 204 207 211 212 214 214 213 209 207 205 208 210 209 207 212 213 214 218 226 228 232 254 263 259 253 253 251 251 254 258 261 264 268 272 276 280
206 205 205 205 202 202 203 204 209 214 217 217 215 217 213 210 207 207 211 209 207 212 214 214 214 221 225 217 233 265 274 247 222 239 249 255 261 265 266 269 273 275 280
211 208 207 206 205 204 202 202 204 212 220 216 216 216 214 212 210 209 211 211 209 210 212 211 209 215 222 215 217 234 256 275 290 244 247 252 259 264 268 273 274 276 278
218 213 213 211 209 206 202 205 204 206 214 217 215 215 214 213 213 211 211 212 211 210 213 211 209 212 219 225 216 222 234 255 270 285 251 247 253 261 266 271 275 277 278
219 215 215 215 213 209 207 210 212 219 225 225 219 219 217 212 214 212 211 210 211 211 212 210 207 210 213 221 223 220 228 238 235 247 272 277 270 266 271 274 276 276 277
220 214 213 215 216 212 211 213 216 222 224 225 222 220 217 215 213 214 211 211 211 210 210 210 209 210 212 218 223 226 228 232 236 241 260 273 280 280 280 277 275 274 274